Terminal Aerodrome Forecast
Issued by NWS

Home | Current Version | Previous Version | Text Only | Print | Product List | Glossary On
Versions: 1 2 3 4 5 6 7 8 9 10 11 12 13 14 15 16 17 18 19 20 21 22 23 24 25 26 27 28 29 30 31 32 33 34 35 36 37 38 39 40 41 42 43 44 45 46 47 48 49 50
000
FTUS45 KGJT 220404 AAA
TAFVEL
TAF AMD
KVEL 220404Z 2204/2224 32005KT P6SM SCT060 OVC080
     FM220900 35008KT 1SM BR BKN006 OVC012
     FM221200 VRB03KT 1/2SM FG BKN003
     FM221700 08005KT P6SM SCT010 OVC030=

USA.gov is the U.S. government's official web portal to all federal, state and local government web resources and services.